Time,TemperatureF,DewpointF,PressureIn,WindDirection,WindDirectionDegrees,WindSpeedMPH,WindSpeedGustMPH,Humidity,HourlyPrecipIn,Conditions,Clouds,dailyrainin,SolarRadiationWatts/m^2,SoftwareType,DateUTC
2013-08-01 00:02:00,92.0,41.0,-100.00,South,191,2.0,7.0,17,0.00,,,0.00,1.000000,,2013-08-01 07:02:00,
2013-08-01 00:43:00,92.0,42.0,-100.00,NE,51,0.0,4.0,18,0.00,,,0.00,1.000000,,2013-08-01 07:43:00,
2013-08-01 01:03:00,92.0,42.0,-100.00,NE,51,0.0,4.0,18,0.00,,,0.00,1.000000,,2013-08-01 08:03:00,
2013-08-01 01:13:00,92.0,42.0,-100.00,NE,51,0.0,4.0,18,0.00,,,0.00,1.000000,,2013-08-01 08:13:00,
2013-08-01 01:48:00,91.0,44.0,-100.00,ESE,117,4.0,6.0,20,0.00,,,0.00,1.000000,,2013-08-01 08:48:00,
2013-08-01 02:04:00,91.0,44.0,-100.00,ESE,117,4.0,6.0,20,0.00,,,0.00,1.000000,,2013-08-01 09:04:00,
2013-08-01 02:57:00,88.0,47.0,-100.00,SE,133,8.0,10.0,24,0.00,,,0.00,1.000000,,2013-08-01 09:57:00,
2013-08-01 03:05:00,88.0,47.0,-100.00,SE,133,8.0,10.0,24,0.00,,,0.00,1.000000,,2013-08-01 10:05:00,
2013-08-01 03:14:00,88.0,47.0,-100.00,SE,133,8.0,10.0,24,0.00,,,0.00,1.000000,,2013-08-01 10:14:00,
2013-08-01 03:58:00,88.0,43.0,-100.00,ESE,121,6.0,9.0,21,0.00,,,-99.99,1.000000,,2013-08-01 10:58:00,
2013-08-01 04:05:00,88.0,43.0,-100.00,ESE,121,6.0,9.0,21,0.00,,,-99.99,1.000000,,2013-08-01 11:05:00,
2013-08-01 04:13:00,88.0,43.0,-100.00,ESE,121,6.0,9.0,21,0.00,,,-99.99,1.000000,,2013-08-01 11:13:00,
2013-08-01 04:49:00,85.0,45.0,-100.00,SSE,162,0.0,8.0,25,0.00,,,0.00,1.000000,,2013-08-01 11:49:00,
2013-08-01 05:05:00,85.0,45.0,-100.00,SSE,162,0.0,8.0,25,0.00,,,0.00,1.000000,,2013-08-01 12:05:00,
2013-08-01 05:12:00,85.0,45.0,-100.00,SSE,162,0.0,8.0,25,0.00,,,0.00,1.000000,,2013-08-01 12:12:00,
2013-08-01 05:53:00,86.0,45.0,-100.00,NE,44,0.0,3.0,24,0.00,,,0.00,1.000000,,2013-08-01 12:53:00,
2013-08-01 06:03:00,86.0,45.0,-100.00,NE,44,0.0,3.0,24,0.00,,,0.00,1.000000,,2013-08-01 13:03:00,
2013-08-01 06:14:00,86.0,45.0,-100.00,NE,44,0.0,3.0,24,0.00,,,0.00,1.000000,,2013-08-01 13:14:00,
2013-08-01 06:54:00,85.0,47.0,-100.00,NNE,27,0.0,3.0,27,0.00,,,0.00,4.000000,,2013-08-01 13:54:00,
2013-08-01 07:05:00,85.0,47.0,-100.00,NNE,27,0.0,3.0,27,0.00,,,0.00,4.000000,,2013-08-01 14:05:00,
2013-08-01 08:06:00,88.0,49.0,-100.00,NW,310,0.0,4.0,26,0.00,,,0.00,107.000000,,2013-08-01 15:06:00,
2013-08-01 10:58:00,98.0,57.0,-100.00,South,181,7.0,11.0,26,-99.99,,,0.00,682.000000,,2013-08-01 17:58:00,
2013-08-01 11:06:00,98.0,57.0,-100.00,South,181,7.0,11.0,26,-99.99,,,0.00,682.000000,,2013-08-01 18:06:00,
2013-08-01 11:55:00,101.0,54.0,-100.00,South,174,9.0,13.0,21,0.00,,,0.00,803.000000,,2013-08-01 18:55:00,
2013-08-01 12:13:00,101.0,54.0,-100.00,South,174,9.0,13.0,21,0.00,,,0.00,803.000000,,2013-08-01 19:13:00,
2013-08-01 12:58:00,105.0,51.0,-100.00,South,182,13.0,19.0,17,0.00,,,0.00,873.000000,,2013-08-01 19:58:00,
2013-08-01 13:04:00,105.0,51.0,-100.00,South,182,13.0,19.0,17,0.00,,,0.00,873.000000,,2013-08-01 20:04:00,
2013-08-01 13:14:00,105.0,51.0,-100.00,South,182,13.0,19.0,17,0.00,,,0.00,873.000000,,2013-08-01 20:14:00,
2013-08-01 13:58:00,108.0,44.0,-100.00,SSE,165,20.0,27.0,12,0.00,,,0.00,997.000000,,2013-08-01 20:58:00,
2013-08-01 14:03:00,108.0,44.0,-100.00,SSE,165,20.0,27.0,12,0.00,,,0.00,997.000000,,2013-08-01 21:03:00,
2013-08-01 14:13:00,108.0,44.0,-100.00,SSE,165,20.0,27.0,12,0.00,,,0.00,997.000000,,2013-08-01 21:13:00,
2013-08-01 14:43:00,107.0,44.0,-100.00,South,172,15.0,26.0,12,0.00,,,0.00,985.000000,,2013-08-01 21:43:00,
2013-08-01 14:53:00,107.0,44.0,-100.00,South,172,15.0,26.0,12,0.00,,,0.00,985.000000,,2013-08-01 21:53:00,
2013-08-01 15:03:00,107.0,44.0,-100.00,South,172,15.0,26.0,12,0.00,,,0.00,985.000000,,2013-08-01 22:03:00,
2013-08-01 15:12:00,107.0,44.0,-100.00,South,172,15.0,26.0,12,0.00,,,0.00,985.000000,,2013-08-01 22:12:00,
2013-08-01 15:47:00,108.0,46.0,-100.00,SSE,159,15.0,22.0,13,0.00,,,0.00,871.000000,,2013-08-01 22:47:00,
2013-08-01 15:57:00,108.0,46.0,-100.00,SSE,159,15.0,22.0,13,0.00,,,0.00,871.000000,,2013-08-01 22:57:00,
2013-08-01 16:04:00,108.0,46.0,-100.00,SSE,159,15.0,22.0,13,0.00,,,0.00,871.000000,,2013-08-01 23:04:00,
2013-08-01 17:13:00,108.0,40.0,-100.00,South,169,14.0,21.0,10,0.00,,,0.00,636.000000,,2013-08-02 00:13:00,
2013-08-01 17:51:00,107.0,46.0,-100.00,SSE,166,15.0,21.0,13,0.00,,,0.00,558.000000,,2013-08-02 00:51:00,
2013-08-01 17:59:00,107.0,46.0,-100.00,SSE,166,15.0,21.0,13,0.00,,,0.00,558.000000,,2013-08-02 00:59:00,
2013-08-01 18:48:00,104.0,47.0,-100.00,SSE,163,13.0,20.0,15,0.00,,,0.00,314.000000,,2013-08-02 01:48:00,
2013-08-01 18:58:00,104.0,47.0,-100.00,SSE,163,13.0,20.0,15,0.00,,,0.00,314.000000,,2013-08-02 01:58:00,
2013-08-01 19:04:00,104.0,47.0,-100.00,SSE,163,13.0,20.0,15,0.00,,,0.00,314.000000,,2013-08-02 02:04:00,
2013-08-01 19:13:00,104.0,47.0,-100.00,SSE,163,13.0,20.0,15,0.00,,,0.00,314.000000,,2013-08-02 02:13:00,
2013-08-01 19:45:00,101.0,45.0,-100.00,SSE,154,12.0,17.0,15,0.00,,,0.00,97.000000,,2013-08-02 02:45:00,
2013-08-01 19:52:00,101.0,45.0,-100.00,SSE,154,12.0,17.0,15,0.00,,,0.00,97.000000,,2013-08-02 02:52:00,
2013-08-01 20:04:00,101.0,45.0,-100.00,SSE,154,12.0,17.0,15,0.00,,,0.00,97.000000,,2013-08-02 03:04:00,
2013-08-01 20:12:00,101.0,45.0,-100.00,SSE,154,12.0,17.0,15,0.00,,,0.00,97.000000,,2013-08-02 03:12:00,
2013-08-01 20:51:00,97.0,52.0,-100.00,SSE,154,10.0,18.0,22,0.00,,,0.00,9.000000,,2013-08-02 03:51:00,
2013-08-01 20:58:00,97.0,52.0,-100.00,SSE,154,10.0,18.0,22,0.00,,,0.00,9.000000,,2013-08-02 03:58:00,
2013-08-01 21:02:00,97.0,52.0,-100.00,SSE,154,10.0,18.0,22,0.00,,,0.00,9.000000,,2013-08-02 04:02:00,
2013-08-01 21:12:00,97.0,52.0,-100.00,SSE,154,10.0,18.0,22,0.00,,,0.00,9.000000,,2013-08-02 04:12:00,
2013-08-01 21:43:00,92.0,49.0,-100.00,South,187,3.0,14.0,23,0.00,,,0.00,1.000000,,2013-08-02 04:43:00,
2013-08-01 21:53:00,92.0,49.0,-100.00,South,187,3.0,14.0,23,0.00,,,0.00,1.000000,,2013-08-02 04:53:00,
2013-08-01 22:02:00,92.0,49.0,-100.00,South,187,3.0,14.0,23,0.00,,,0.00,1.000000,,2013-08-02 05:02:00,
2013-08-01 22:12:00,92.0,49.0,-100.00,South,187,3.0,14.0,23,0.00,,,0.00,1.000000,,2013-08-02 05:12:00,
2013-08-01 22:43:00,89.0,46.0,-100.00,SE,145,5.0,9.0,23,0.00,,,0.00,1.000000,,2013-08-02 05:43:00,
2013-08-01 22:53:00,89.0,46.0,-100.00,SE,145,5.0,9.0,23,0.00,,,0.00,1.000000,,2013-08-02 05:53:00,
2013-08-01 23:02:00,89.0,46.0,-100.00,SE,145,5.0,9.0,23,0.00,,,0.00,1.000000,,2013-08-02 06:02:00,
2013-08-01 23:12:00,89.0,46.0,-100.00,SE,145,5.0,9.0,23,0.00,,,0.00,1.000000,,2013-08-02 06:12:00,
2013-08-01 23:43:00,88.0,49.0,-100.00,ESE,121,6.0,9.0,26,0.00,,,0.00,1.000000,,2013-08-02 06:43:00,
2013-08-01 23:52:00,88.0,49.0,-100.00,ESE,121,6.0,9.0,26,0.00,,,0.00,1.000000,,2013-08-02 06:52:00,